Location: Huntsville
(41.2590°N, 111.7678°W)
Time: 22:13:12
(UTC+00:00)

SR - Pass Details

Date: 16 June 2021
Orbit: 577 x 878 km, 66.7° (Epoch: 28 July)

Event Time Altitude Azimuth Distance (km) Brightness Sun altitude
Rises 10:12:33 0° 325° (NW) 3,276 ? -14.9°
Reaches altitude 10° 10:15:07 10° 320° (NW) 2,296 ? -14.6°
Maximum altitude 10:20:08 49° 247° (WSW) 915 ? -14.0°
Drops below altitude 10° 10:24:43 10° 173° (S) 2,089 ? -13.5°
Enters shadow 10:25:22 - 171° (S) 2,339 ? -13.4°
